DW9210 Weather Reports


Display with metric or nautical units.
time (UTC)temp
F
wind
direction
speed
MPH
gust
MPH
rain 1hr
in
rain 24hr
in
rain mn
in
humidity
%
barometer
mb
20260905214003 93 298 2.0 5.0 0.00 0.30 0.30 57 1009.6
20260905213503 93 307 1.0 2.0 0.00 0.30 0.30 57 1009.4
20260905213003 93 288 2.0 5.0 0.00 0.30 0.30 58 1009.3
20260905212524 93 270 3.0 7.0 0.00 0.30 0.30 55 1009.3
20260905212003 93 281 2.0 7.0 0.00 0.30 0.30 55 1009.3
20260905211524 93 298 2.0 4.0 0.00 0.30 0.30 57 1009.4
20260905211003 94 295 2.0 4.0 0.00 0.30 0.30 57 1009.3
20260905210503 94 296 2.0 4.0 0.00 0.30 0.30 53 1009.5
20260905210003 94 293 3.0 5.0 0.00 0.30 0.30 57 1009.4
20260905205503 94 289 3.0 6.0 0.00 0.30 0.30 54 1009.4
20260905205003 94 287 2.0 6.0 0.00 0.30 0.30 53 1009.4
20260905204503 94 271 2.0 6.0 0.00 0.30 0.30 56 1009.4
20260905204003 94 259 2.0 6.0 0.00 0.30 0.30 52 1009.5
20260905203503 94 261 2.0 7.0 0.00 0.30 0.30 50 1009.5
20260905203003 94 251 2.0 7.0 0.00 0.30 0.30 51 1009.5
20260905202503 94 258 2.0 5.0 0.00 0.30 0.30 53 1009.6
20260905202003 94 259 2.0 6.0 0.00 0.30 0.30 50 1009.5
20260905201503 94 250 3.0 9.0 0.00 0.30 0.30 51 1009.7
20260905201024 94 255 2.0 9.0 0.00 0.30 0.30 51 1009.7
20260905200503 94 265 2.0 5.0 0.00 0.30 0.30 51 1009.8
20260905200003 94 262 3.0 8.0 0.00 0.30 0.30 50 1009.9
20260905195503 94 253 3.0 8.0 0.00 0.30 0.30 48 1010.0
20260905195004 94 247 3.0 7.0 0.00 0.30 0.30 48 1010.1
20260905194503 94 245 3.0 9.0 0.00 0.30 0.30 49 1010.2
20260905194003 94 255 3.0 9.0 0.00 0.30 0.30 50 1010.2
20260905193503 94 255 3.0 6.0 0.00 0.30 0.30 50 1010.4
20260905193003 93 248 2.0 6.0 0.00 0.30 0.30 51 1010.5
20260905192503 93 236 2.0 5.0 0.00 0.30 0.30 54 1010.5
20260905192003 93 223 2.0 6.0 0.00 0.30 0.30 50 1010.6
20260905191503 93 221 2.0 6.0 0.00 0.30 0.30 52 1010.6
20260905191003 92 217 2.0 8.0 0.00 0.30 0.30 53 1010.6
20260905190503 92 222 2.0 8.0 0.00 0.30 0.30 50 1010.5
20260905190024 92 237 3.0 9.0 0.00 0.30 0.30 53 1010.6
20260905185503 92 247 3.0 9.0 0.00 0.30 0.30 51 1010.7
20260905185024 92 245 3.0 7.0 0.00 0.30 0.30 54 1010.6
20260905184503 92 242 3.0 7.0 0.00 0.30 0.30 59 1010.6
20260905184003 92 240 3.0 7.0 0.00 0.30 0.30 55 1010.7
20260905183503 92 242 3.0 7.0 0.00 0.30 0.30 54 1010.8
20260905183003 92 242 2.0 5.0 0.00 0.30 0.30 53 1011.0
20260905182503 92 228 1.0 5.0 0.00 0.30 0.30 54 1011.0
20260905182003 91 213 2.0 5.0 0.00 0.30 0.30 54 1011.1
20260905181503 91 211 2.0 4.0 0.00 0.30 0.30 53 1011.1
20260905181003 91 207 2.0 4.0 0.00 0.30 0.30 58 1011.1
20260905180503 90 230 2.0 5.0 0.00 0.30 0.30 55 1011.2
20260905180003 90 230 2.0 6.0 0.00 0.30 0.30 56 1011.2
20260905175503 89 227 2.0 6.0 0.00 0.30 0.30 62 1011.2
20260905175003 89 237 3.0 5.0 0.00 0.30 0.30 60 1011.3
20260905174524 89 225 2.0 6.0 0.00 0.30 0.30 60 1011.4
20260905174003 89 204 2.0 6.0 0.00 0.30 0.30 61 1011.5
20260905173503 89 200 2.0 6.0 0.00 0.30 0.30 57 1011.5
20260905173003 88 189 1.0 5.0 0.00 0.30 0.30 60 1011.5
20260905172524 88 178 2.0 5.0 0.00 0.30 0.30 57 1011.5
20260905172003 88 166 2.0 6.0 0.00 0.30 0.30 59 1011.7
20260905171503 88 169 2.0 4.0 0.00 0.30 0.30 58 1011.8
20260905171003 88 182 2.0 5.0 0.00 0.30 0.30 63 1011.9
20260905170503 88 181 2.0 5.0 0.00 0.30 0.30 59 1012.0
20260905170003 87 208 2.0 4.0 0.00 0.30 0.30 57 1012.0
20260905165503 87 211 2.0 7.0 0.00 0.30 0.30 61 1012.0
20260905165024 87 182 2.0 7.0 0.00 0.30 0.30 63 1011.9
20260905164503 87 166 2.0 6.0 0.00 0.30 0.30 65 1011.8
20260905164003 86 154 3.0 7.0 0.00 0.30 0.30 64 1011.6
20260905163503 86 145 3.0 7.0 0.00 0.30 0.30 64 1011.6
20260905163024 86 163 3.0 7.0 0.00 0.30 0.30 63 1011.6
20260905162524 86 176 2.0 5.0 0.00 0.30 0.30 63 1011.7
20260905162003 86 162 2.0 5.0 0.00 0.30 0.30 64 1011.7
20260905161503 85 153 3.0 8.0 0.00 0.30 0.30 67 1011.6
20260905161003 85 155 2.0 8.0 0.00 0.30 0.30 64 1011.9
20260905160503 85 148 3.0 9.0 0.00 0.30 0.30 68 1011.9
20260905160003 84 148 3.0 9.0 0.00 0.30 0.30 62 1011.9
20260905155503 84 148 3.0 7.0 0.00 0.30 0.30 64 1012.0
20260905155024 84 140 4.0 7.0 0.00 0.30 0.30 66 1011.9
20260905154503 84 139 4.0 7.0 0.00 0.30 0.30 65 1012.0
20260905154003 83 140 3.0 8.0 0.00 0.30 0.30 64 1012.2
20260905153524 83 137 3.0 8.0 0.00 0.30 0.30 69 1012.1
20260905153003 83 135 3.0 8.0 0.00 0.30 0.30 71 1012.2
20260905152503 82 135 3.0 8.0 0.00 0.30 0.30 71 1012.4
20260905152024 82 133 4.0 10.0 0.00 0.30 0.30 72 1012.3
20260905151524 81 136 4.0 10.0 0.00 0.30 0.30 72 1012.3
20260905151003 81 141 3.0 9.0 0.00 0.30 0.30 70 1012.3
20260905150503 80 137 5.0 11.0 0.00 0.30 0.30 74 1012.3
20260905150003 80 137 5.0 11.0 0.00 0.30 0.30 74 1012.3
20260905145503 80 139 5.0 10.0 0.00 0.30 0.30 75 1012.3
20260905145024 79 141 5.0 10.0 0.00 0.30 0.30 76 1012.4
20260905144524 79 140 5.0 9.0 0.00 0.30 0.30 77 1012.4
20260905144003 79 137 5.0 10.0 0.00 0.30 0.30 78 1012.4
20260905143503 78 136 4.0 10.0 0.00 0.30 0.30 77 1012.6
20260905143003 78 134 4.0 10.0 0.00 0.30 0.30 78 1012.7
20260905142503 78 134 5.0 10.0 0.00 0.30 0.30 79 1012.7
20260905142003 77 132 4.0 8.0 0.00 0.30 0.30 78 1012.6
20260905141503 77 129 3.0 7.0 0.00 0.30 0.30 82 1012.7
20260905141024 76 128 3.0 8.0 0.00 0.30 0.30 80 1012.7
20260905140503 76 124 4.0 8.0 0.00 0.30 0.30 81 1012.7
20260905140004 75 112 5.0 10.0 0.00 0.30 0.30 83 1012.8
20260905135524 75 102 5.0 11.0 0.00 0.30 0.30 83 1012.8
20260905135003 74 99 4.0 11.0 0.00 0.30 0.30 86 1012.9
20260905134503 73 103 3.0 10.0 0.00 0.30 0.30 87 1013.1
20260905134003 72 97 4.0 9.0 0.00 0.30 0.30 86 1013.2
20260905133503 72 88 3.0 9.0 0.00 0.30 0.30 85 1013.2
20260905133003 72 101 3.0 8.0 0.00 0.30 0.30 86 1013.3
20260905132503 72 116 3.0 10.0 0.00 0.30 0.30 85 1013.3
20260905132003 72 112 5.0 10.0 0.00 0.30 0.30 85 1013.4
20260905131524 72 103 7.0 15.0 0.01 0.30 0.30 86 1013.4
20260905131003 71 98 7.0 15.0 0.01 0.30 0.30 87 1013.5
20260905130503 71 95 7.0 15.0 0.02 0.30 0.30 89 1014.0
20260905130003 71 89 8.0 16.0 0.02 0.30 0.30 89 1014.0
20260905125503 71 87 8.0 18.0 0.02 0.30 0.30 90 1014.1
20260905125003 71 84 8.0 18.0 0.02 0.30 0.30 90 1014.2
20260905124503 71 72 8.0 14.0 0.02 0.30 0.30 91 1014.1
20260905124003 71 81 10.0 15.0 0.02 0.30 0.30 92 1014.1
20260905123503 71 93 11.0 18.0 0.02 0.30 0.30 92 1014.1
20260905123003 72 93 11.0 18.0 0.03 0.30 0.30 92 1014.1
20260905122503 72 96 11.0 18.0 0.03 0.30 0.30 91 1014.4
20260905122003 72 90 9.0 17.0 0.04 0.30 0.30 92 1014.6
20260905121503 72 67 6.0 16.0 0.03 0.29 0.29 91 1014.7
20260905121003 72 356 5.0 13.0 0.06 0.29 0.29 91 1015.2
20260905120503 72 348 6.0 16.0 0.08 0.28 0.28 91 1015.1
20260905120003 72 340 6.0 16.0 0.14 0.28 0.28 93 1015.5
20260905115503 72 303 5.0 12.0 0.22 0.28 0.28 94 1015.0
20260905115003 72 258 3.0 8.0 0.27 0.28 0.28 93 1013.2
20260905114503 72 240 3.0 8.0 0.28 0.28 0.28 93 1012.7
20260905114024 72 250 4.0 10.0 0.28 0.28 0.28 92 1012.5
20260905113524 72 254 5.0 11.0 0.28 0.28 0.28 91 1012.7
20260905113003 72 257 5.0 12.0 0.27 0.27 0.27 91 1012.7
20260905112503 72 257 5.0 12.0 0.27 0.27 0.27 91 1012.5
20260905112024 73 252 4.0 14.0 0.26 0.26 0.26 91 1012.2
20260905111503 74 253 5.0 14.0 0.26 0.26 0.26 92 1012.4
20260905111003 74 269 5.0 11.0 0.22 0.22 0.22 94 1012.7
20260905110503 74 273 5.0 10.0 0.20 0.20 0.20 94 1012.8
20260905110003 74 279 7.0 18.0 0.14 0.14 0.13 93 1012.4
20260905105503 75 281 10.0 19.0 0.06 0.06 0.06 92 1012.3
20260905105024 75 274 13.0 28.0 0.01 0.01 0.01 92 1012.1
20260905104503 75 269 11.0 28.0 0.00 0.00 0.00 95 1012.2
20260905104003 73 271 4.0 19.0 0.00 0.00 0.00 96 1011.8
20260905103503 73 283 1.0 3.0 0.00 0.00 0.00 96 1010.9
20260905103003 73 279 1.0 3.0 0.00 0.00 0.00 97 1010.9
20260905102503 72 251 1.0 5.0 0.00 0.00 0.00 97 1010.9
20260905102003 72 244 2.0 9.0 0.00 0.00 0.00 97 1010.6
20260905101503 72 258 1.0 9.0 0.00 0.00 0.00 97 1010.8
20260905101003 71 27 0.0 1.0 0.00 0.00 0.00 97 1011.1
20260905100503 71 27 0.0 1.0 0.00 0.00 0.00 96 1011.0
20260905100003 71 0 0.0 0.0 0.00 0.00 0.00 97 1011.1
20260905095503 71 0 0.0 0.0 0.00 0.00 0.00 97 1011.0
20260905095003 71 0 0.0 0.0 0.00 0.00 0.00 97 1011.2
20260905094503 71 0 0.0 0.0 0.00 0.00 0.00 96 1011.1
20260905094024 71 0 0.0 0.0 0.00 0.00 0.00 96 1011.1
20260905093503 71 0 0.0 0.0 0.00 0.00 0.00 96 1011.0
20260905093003 71 0 0.0 0.0 0.00 0.00 0.00 96 1011.0
20260905092503 71 0 0.0 0.0 0.00 0.00 0.00 97 1010.9
20260905092003 71 0 0.0 0.0 0.00 0.00 0.00 97 1011.0
20260905091524 71 0 0.0 0.0 0.00 0.00 0.00 96 1011.0
20260905091003 71 0 0.0 0.0 0.00 0.00 0.00 96 1011.0
20260905090503 71 0 0.0 0.0 0.00 0.00 0.00 96 1011.0
20260905090024 71 0 0.0 0.0 0.00 0.00 0.00 96 1011.0
20260905085503 71 0 0.0 0.0 0.00 0.00 0.00 96 1011.1
20260905085003 71 0 0.0 0.0 0.00 0.00 0.00 96 1011.0
20260905084503 71 27 0.0 1.0 0.00 0.00 0.00 96 1010.9
20260905084003 71 27 0.0 1.0 0.00 0.00 0.00 96 1010.8
20260905083524 71 0 0.0 0.0 0.00 0.00 0.00 96 1010.8
20260905083024 71 27 0.0 1.0 0.00 0.00 0.00 96 1010.8
20260905082503 71 27 0.0 1.0 0.00 0.00 0.00 96 1010.8
20260905082003 71 27 0.0 1.0 0.00 0.00 0.00 96 1010.8
20260905081503 71 0 0.0 0.0 0.00 0.00 0.00 96 1010.7
20260905081024 71 0 0.0 0.0 0.00 0.00 0.00 96 1010.6
20260905080503 71 0 0.0 0.0 0.00 0.00 0.00 96 1010.6
20260905080003 71 0 0.0 0.0 0.00 0.00 0.00 95 1010.4
20260905075503 71 0 0.0 0.0 0.00 0.00 0.00 95 1010.5
20260905075003 71 0 0.0 0.0 0.00 0.00 0.00 95 1010.6
20260905074524 72 0 0.0 0.0 0.00 0.00 0.00 96 1010.6
20260905074003 72 0 0.0 0.0 0.00 0.00 0.00 95 1010.7
20260905073503 72 0 0.0 0.0 0.00 0.00 0.00 95 1010.7
20260905073003 72 0 0.0 0.0 0.00 0.00 0.00 95 1010.8
20260905072524 72 0 0.0 0.0 0.00 0.00 0.00 96 1010.9
20260905072003 72 0 0.0 0.0 0.00 0.00 0.00 95 1011.0
20260905071503 72 27 0.0 1.0 0.00 0.00 0.00 96 1011.1
20260905071003 72 27 0.0 1.0 0.00 0.00 0.00 96 1011.0
20260905070503 72 27 0.0 1.0 0.00 0.00 0.00 95 1011.1
20260905070003 72 27 0.0 1.0 0.00 0.00 0.00 95 1011.2
20260905065503 72 0 0.0 0.0 0.00 0.00 0.00 95 1011.2
20260905065003 72 0 0.0 0.0 0.00 0.00 0.00 95 1011.3
20260905064503 72 0 0.0 0.0 0.00 0.00 0.00 95 1011.4
20260905064003 72 0 0.0 0.0 0.00 0.00 0.00 95 1011.5
20260905063503 72 0 0.0 0.0 0.00 0.00 0.00 95 1011.5
20260905063003 72 0 0.0 0.0 0.00 0.00 0.00 95 1011.6
20260905062503 72 0 0.0 0.0 0.00 0.00 0.00 95 1011.6
20260905062003 72 0 0.0 0.0 0.00 0.00 0.00 95 1011.7
20260905061503 72 0 0.0 0.0 0.00 0.00 0.00 95 1011.7
20260905061003 72 27 0.0 1.0 0.00 0.00 0.00 95 1011.7
20260905060503 72 27 0.0 1.0 0.00 0.00 0.00 95 1011.8
20260905060003 72 0 0.0 0.0 0.00 0.00 0.00 94 1011.9
20260905055503 72 0 0.0 0.0 0.00 0.00 0.00 94 1012.0
20260905055003 73 0 0.0 0.0 0.00 0.00 0.00 94 1012.1
20260905054503 73 0 0.0 0.0 0.00 0.00 0.00 94 1012.1
20260905054003 73 0 0.0 0.0 0.00 0.00 0.00 94 1012.2
20260905053503 73 27 0.0 1.0 0.00 0.00 0.00 94 1012.1
20260905053003 73 27 0.0 1.0 0.00 0.00 0.00 94 1012.2
20260905052503 73 0 0.0 0.0 0.00 0.00 0.00 94 1012.2
20260905052003 73 0 0.0 0.0 0.00 0.00 0.00 94 1012.2
20260905051524 73 0 0.0 0.0 0.00 0.00 0.00 94 1012.2
20260905051003 73 27 0.0 1.0 0.00 0.00 0.00 93 1012.2
20260905050503 73 27 0.0 1.0 0.00 0.00 0.00 94 1012.3
20260905050003 73 27 0.0 1.0 0.00 0.00 0.00 94 1012.3
20260905045503 73 27 0.0 1.0 0.00 0.00 0.00 94 1012.3
20260905045003 73 0 0.0 0.0 0.00 0.00 0.00 93 1012.3
20260905044503 74 0 0.0 0.0 0.00 0.00 0.00 93 1012.3
20260905044024 74 0 0.0 0.0 0.00 0.00 0.00 93 1012.3
20260905043524 74 0 0.0 0.0 0.00 0.00 0.00 93 1012.3
20260905043003 74 0 0.0 0.0 0.00 0.00 0.00 93 1012.3
20260905042503 74 0 0.0 0.0 0.00 0.00 0.00 93 1012.3
20260905042003 74 0 0.0 0.0 0.00 0.00 0.00 92 1012.3
20260905041503 74 0 0.0 0.0 0.00 0.00 0.00 92 1012.3
20260905041003 74 0 0.0 0.0 0.00 0.00 0.00 92 1012.3
20260905040503 74 0 0.0 0.0 0.00 0.00 0.00 92 1012.2
20260905040003 74 0 0.0 0.0 0.00 0.00 0.00 91 1012.2
20260905035503 75 0 0.0 0.0 0.00 0.00 0.00 91 1012.2
20260905035003 75 0 0.0 0.0 0.00 0.00 0.00 90 1012.2
20260905034503 75 0 0.0 0.0 0.00 0.00 0.00 90 1012.2
20260905034003 75 0 0.0 0.0 0.00 0.00 0.00 90 1012.2
20260905033503 75 0 0.0 0.0 0.00 0.00 0.00 89 1012.2
20260905033003 76 27 0.0 2.0 0.00 0.00 0.00 89 1012.2
20260905032524 76 27 0.0 2.0 0.00 0.00 0.00 89 1012.2
20260905032003 76 27 0.0 1.0 0.00 0.00 0.00 88 1012.3
20260905031503 76 0 0.0 0.0 0.00 0.00 0.00 88 1012.3
20260905031003 77 27 0.0 1.0 0.00 0.00 0.00 87 1012.3
20260905030503 77 27 0.0 2.0 0.00 0.00 0.00 86 1012.3
20260905030003 78 56 0.0 2.0 0.00 0.00 0.00 86 1012.3
20260905025503 78 94 0.0 2.0 0.00 0.00 0.00 85 1012.4
20260905025024 78 98 0.0 1.0 0.00 0.00 0.00 84 1012.3
20260905024503 78 98 0.0 1.0 0.00 0.00 0.00 84 1012.3
20260905024003 78 98 0.0 1.0 0.00 0.00 0.00 83 1012.2
20260905023503 79 96 0.0 2.0 0.00 0.00 0.00 82 1012.2
20260905023024 79 87 0.0 2.0 0.00 0.00 0.00 82 1012.2
20260905022503 79 77 1.0 2.0 0.00 0.00 0.00 80 1012.2
20260905022003 79 77 1.0 3.0 0.00 0.00 0.00 80 1012.2
20260905021503 79 90 2.0 4.0 0.00 0.00 0.00 80 1012.2
20260905021003 79 90 2.0 4.0 0.00 0.00 0.00 80 1012.2
20260905020503 79 71 2.0 5.0 0.00 0.00 0.00 81 1012.2
20260905020003 79 62 3.0 6.0 0.00 0.00 0.00 81 1012.1
20260905015503 79 59 3.0 6.0 0.00 0.00 0.00 81 1012.1
20260905015003 80 44 2.0 5.0 0.00 0.00 0.00 82 1012.1
20260905014503 80 34 2.0 4.0 0.00 0.00 0.00 82 1012.0
20260905014003 80 44 2.0 4.0 0.00 0.00 0.00 81 1012.0
20260905013503 80 36 2.0 4.0 0.00 0.00 0.00 82 1011.9
20260905013024 80 22 1.0 3.0 0.00 0.00 0.00 82 1011.8
20260905012524 80 12 1.0 3.0 0.00 0.00 0.00 83 1011.8
20260905012003 80 15 1.0 5.0 0.00 0.00 0.00 84 1011.8
20260905011524 80 35 2.0 5.0 0.00 0.00 0.00 83 1011.7
20260905011003 80 50 2.0 6.0 0.00 0.00 0.00 83 1011.6
20260905010524 80 49 3.0 7.0 0.00 0.00 0.00 84 1011.5
20260905010003 80 46 1.0 7.0 0.00 0.00 0.00 85 1011.5
20260905005503 81 0 0.0 0.0 0.00 0.00 0.00 84 1011.4
20260905005003 81 0 0.0 0.0 0.00 0.00 0.00 82 1011.3
20260905004524 82 0 0.0 0.0 0.00 0.00 0.00 83 1011.2
20260905004003 82 161 0.0 1.0 0.00 0.00 0.00 82 1011.1
20260905003503 82 162 0.0 1.0 0.00 0.00 0.00 82 1011.1
20260905003003 82 165 0.0 1.0 0.00 0.00 0.00 82 1011.0
20260905002503 83 256 0.0 2.0 0.00 0.00 0.00 79 1011.0
20260905002003 84 245 1.0 2.0 0.00 0.00 0.00 78 1010.8
20260905001503 84 235 1.0 2.0 0.00 0.00 0.00 76 1010.8
20260905001003 85 212 0.0 1.0 0.00 0.00 0.00 76 1010.8
20260905000503 85 213 0.0 2.0 0.00 0.00 0.00 75 1010.7
20260905000003 86 213 0.0 2.0 0.00 0.00 0.00 75 1010.6
20260904235503 87 213 0.0 2.0 0.00 0.00 0.00 72 1010.7
20260904235003 88 213 0.0 1.0 0.00 0.00 0.00 72 1010.7
20260904234503 88 213 0.0 1.0 0.00 0.00 0.00 70 1010.7
20260904234003 89 213 0.0 2.0 0.00 0.00 0.00 68 1010.8
20260904233503 89 213 0.0 2.0 0.00 0.00 0.00 68 1010.7
20260904233003 90 217 0.0 2.0 0.00 0.00 0.00 66 1010.9
20260904232503 90 225 0.0 2.0 0.00 0.00 0.00 66 1010.8
20260904232003 91 235 1.0 2.0 0.00 0.00 0.00 65 1010.6
20260904231524 92 238 1.0 2.0 0.00 0.00 0.00 63 1010.8
20260904231003 93 242 1.0 2.0 0.00 0.00 0.00 61 1010.8
20260904230503 94 246 0.0 2.0 0.00 0.00 0.00 60 1010.9
20260904230003 94 270 1.0 2.0 0.00 0.00 0.00 59 1011.0
20260904225503 94 285 1.0 3.0 0.00 0.00 0.00 59 1011.2
20260904225024 94 280 1.0 3.0 0.00 0.00 0.00 56 1011.2
20260904224503 95 287 1.0 3.0 0.00 0.00 0.00 57 1011.4
20260904224003 95 295 2.0 3.0 0.00 0.00 0.00 57 1011.4
20260904223503 95 293 2.0 5.0 0.00 0.00 0.00 57 1011.4
20260904223024 95 297 2.0 5.0 0.00 0.00 0.00 58 1011.6
20260904222503 95 299 2.0 5.0 0.00 0.00 0.00 59 1011.7
20260904222003 95 296 2.0 5.0 0.00 0.00 0.00 55 1011.7
20260904221503 96 292 2.0 4.0 0.00 0.00 0.00 56 1011.7
20260904221024 96 291 2.0 3.0 0.00 0.00 0.00 57 1011.8
20260904220503 96 290 2.0 4.0 0.00 0.00 0.00 56 1011.8
20260904220003 96 295 2.0 4.0 0.00 0.00 0.00 55 1011.8
20260904215503 96 297 3.0 4.0 0.00 0.00 0.00 53 1011.9
20260904215003 96 294 2.0 4.0 0.00 0.00 0.00 55 1011.8
20260904214524 96 292 2.0 4.0 0.00 0.00 0.00 56 1011.8